Вернуться в каталог

STARLINK-36902

АктивенСвязьVLEO
NORAD 68043·PAYLOAD·🇺🇸 United States

Запущен Mar 2, 2026 с Vandenberg Space Force Base

Loading…

Ближайшие Пролёты (ближайшие 24 часа)

TLE

СвежийSource: CelesTrak SupGP

Эпоха: Sep 14, 2026, 23:28 UTC

1 68043C 26041D   26257.97826389  .00028097  00000+0  82994-3 0  2575
2 68043  53.1580 247.5029 0001462  81.2049 274.3219 15.34382992    16

Отслеживайте STARLINK-36902 в реальном времени с AllMySat

Download on the App Store